Temperature
4 5 5 5 5 5 4 4 4 4 5 5 5 4 5 5 6 6 6 6 6 6 6 6 6 6 6 6 6 6 6 6 6 6 6 6 6 6 6 6 6 5 5 5
3 4 4 4 4 4 5 5 4 5 5 5 5 5 5 5 5 5 5 6 6 6 5 5 5 5 5 5 5 5 5 5 5 5 5 5 5 5 5 5 5 5 5 5
2 3 4 3 4 4 4 4 4 4 4 4 4 4 4 4 5 5 5 5 5 5 5 5 5 5 5 5 5 5 5 5 5 5 4 4 4 4 5 4 4 5 4 4
1 2 2 4 4 4 4 3 3 3 3 3 3 4 4 4 4 4 4 5 5 5 5 5 5 4 4 4 4 4 4 4 4 4 4 4 4 4 4 4 4 4 4 4
1 1 2 3 4 3 3 2 2 2 3 3 3 3 3 4 4 4 4 4 4 4 4 4 4 4 4 3 3 3 3 3 3 3 3 3 3 3 3 3 3 3 3 3
1 1 2 3 3 4 3 2 2 2 2 2 2 1 1 3 3 3 3 3 3 3 3 3 3 3 3 3 3 3 3 3 2 2 2 2 2 2 2 2 2 2 2 3
1 1 1 2 3 3 2 2 2 2 2 2 1 2 2 2 2 2 2 3 3 3 3 3 3 2 2 2 2 2 2 2 2 2 2 2 2 2 2 2 2 2 2 2
0 1 1 2 2 1 1 2 2 2 2 2 2 2 2 2 2 2 2 2 2 2 2 2 2 2 2 2 2 2 1 1 1 1 1 1 1 1 1 1 1 1 1 1
1 1 1 2 2 2 2 1 1 1 1 1 1 1 1 1 1 1 1 1 1 1 1 1 1 1 1 1 1 1 1 1 1 1 1 1 1 1 1 1 1 1 1 1
-1 -0 0 1 1 1 1 1 1 1 1 1 1 1 1 1 1 0 0 0 0 0 0 0 0 1 1 1 1 0 0 0 0 0 0 0 0 0 0 0 0 0 -0 -0
-1 -1 -0 0 1 1 1 0 0 0 0 0 0 0 -0 -0 -0 -0 -0 -0 -0 -0 -0 -0 -0 -0 -0 -0 -0 -0 -0 -0 -0 -0 -0 -0 -0 -0 -0 -0 -0 -1 -1 -1
-1 -1 -1 -0 0 0 0 -0 -0 -0 -0 -0 -1 -1 -1 -1 -1 -1 -1 -1 -1 -1 -1 -1 -1 -1 -1 -1 -1 -1 -1 -1 -1 -1 -1 -1 -1 -1 -1 -1 -1 -1 -1 -1
0 0 0 -0 -0 -0 -0 -0 -1 -1 -1 -1 -1 -1 -1 -1 -1 -1 -1 -1 -1 -1 -1 -1 -1 -1 -1 -1 -1 -1 -1 -1 -1 -1 -2 -2 -2 -2 -2 -2 -2 -2 -2 -2
-0 -0 -1 -1 -1 -1 -1 -1 -1 -1 -1 -2 -2 -2 -2 -2 -2 -2 -2 -2 -2 -2 -2 -2 -2 -2 -2 -2 -2 -2 -2 -2 -2 -2 -2 -2 -2 -2 -2 -2 -2 -2 -2 -2
-1 -1 -1 -1 -1 -1 -1 -1 -2 -2 -2 -2 -2 -2 -2 -2 -2 -2 -2 -2 -2 -2 -2 -2 -2 -2 -2 -2 -2 -2 -2 -2 -2 -3 -3 -3 -3 -3 -3 -3 -3 -3 -3 -3
-1 -1 -1 -1 -1 -1 -2 -2 -2 -2 -2 -2 -2 -2 -2 -2 -2 -3 -3 -3 -3 -3 -2 -3 -3 -3 -3 -3 -3 -3 -3 -3 -3 -3 -3 -3 -3 -3 -3 -4 -4 -4 -3 -3
-2 -2 -2 -2 -2 -2 -2 -2 -2 -2 -2 -3 -3 -3 -3 -3 -3 -3 -3 -3 -3 -3 -3 -3 -3 -3 -3 -3 -3 -3 -3 -3 -4 -4 -4 -4 -4 -4 -4 -4 -4 -4 -4 -4
-2 -2 -2 -2 -2 -2 -2 -3 -3 -3 -3 -3 -3 -3 -3 -3 -3 -3 -3 -3 -3 -3 -3 -3 -3 -3 -3 -4 -4 -4 -4 -4 -4 -4 -4 -4 -4 -4 -5 -5 -5 -5 -5 -5
-2 -2 -3 -3 -3 -3 -3 -3 -3 -3 -3 -3 -3 -4 -3 -4 -4 -4 -4 -4 -4 -4 -3 -4 -4 -4 -4 -4 -4 -4 -4 -4 -5 -5 -5 -5 -5 -5 -5 -5 -5 -5 -5 -5
-3 -3 -3 -3 -3 -3 -3 -3 -3 -4 -4 -4 -4 -4 -4 -4 -4 -4 -4 -4 -4 -4 -4 -4 -4 -4 -5 -5 -5 -5 -5 -5 -5 -5 -5 -5 -5 -5 -5 -5 -5 -5 -6 -6
-3 -3 -4 -4 -4 -4 -4 -4 -4 -4 -4 -4 -4 -4 -4 -4 -5 -5 -5 -5 -4 -5 -5 -5 -5 -5 -5 -5 -5 -5 -5 -5 -5 -5 -6 -6 -6 -6 -6 -6 -6 -6 -6 -6
-4 -4 -4 -4 -4 -4 -4 -4 -5 -5 -5 -5 -5 -5 -5 -5 -5 -5 -5 -5 -5 -5 -5 -5 -5 -6 -6 -6 -6 -6 -6 -6 -6 -6 -6 -6 -6 -6 -6 -6 -6 -6 -6 -6
-5 -5 -5 -5 -5 -5 -5 -5 -5 -5 -5 -6 -6 -6 -6 -6 -6 -6 -6 -6 -6 -6 -6 -6 -6 -6 -6 -6 -6 -6 -6 -6 -6 -6 -6 -6 -6 -6 -6 -6 -6 -6 -6 -6
-5 -6 -6 -6 -6 -6 -6 -6 -6 -6 -6 -6 -6 -6 -6 -6 -6 -6 -6 -6 -6 -6 -6 -6 -6 -6 -6 -6 -6 -6 -6 -6 -6 -6 -6 -6 -7 -7 -7 -7 -7 -7 -7 -6
-6 -6 -6 -6 -7 -7 -7 -7 -6 -6 -6 -7 -7 -7 -7 -7 -7 -7 -7 -7 -7 -7 -7 -7 -7 -7 -7 -7 -7 -7 -7 -7 -7 -7 -7 -7 -7 -7 -7 -7 -7 -7 -7 -7
-7 -7 -7 -7 -7 -7 -7 -7 -7 -7 -7 -7 -7 -7 -7 -7 -7 -7 -7 -7 -7 -7 -7 -7 -7 -7 -7 -7 -7 -7 -7 -7 -7 -7 -7 -7 -7 -7 -7 -7 -7 -7 -7 -7
-7 -7 -8 -8 -8 -8 -8 -8 -8 -8 -8 -8 -8 -8 -8 -8 -8 -8 -8 -7 -7 -7 -7 -7 -7 -7 -7 -7 -7 -7 -7 -7 -7 -7 -7 -7 -7 -7 -7 -7 -7 -7 -7 -7
Wind_Speed
7 5 4 7 9 8 9 9 9 10 10 10 7 5 4 2 2 1 1 2 2 3 3 2 2 2 2 3 3 2 2 2 3 2 2 1 1 2 1 2 2 3 2 2
4 6 7 10 12 12 12 11 11 10 11 7 5 3 2 2 3 3 3 4 4 3 3 3 3 3 2 3 3 3 3 3 2 2 1 1 1 2 1 1 2 2 2 2
4 3 3 9 10 11 7 7 8 11 10 3 2 3 3 3 3 3 4 4 4 4 4 4 4 4 4 4 2 2 3 2 2 2 2 2 1 2 2 2 2 2 2 2
2 1 8 7 3 6 6 5 5 4 4 4 4 3 2 2 3 3 3 3 3 3 3 3 3 2 2 2 2 2 2 2 2 2 2 2 2 2 3 3 3 3 3 3
4 5 8 6 3 3 4 4 2 4 4 3 3 1 3 2 2 3 3 3 3 3 3 2 2 2 1 1 1 2 3 3 3 3 3 3 3 3 3 3 3 3 3 3
5 5 7 5 3 1 3 3 3 2 2 2 2 1 4 3 2 2 2 2 2 2 1 1 2 1 1 2 2 3 4 4 4 4 4 4 5 4 3 3 4 4 4 4
7 7 6 5 3 2 3 4 1 1 1 1 2 4 4 3 2 2 2 3 2 1 1 2 2 1 2 2 4 4 4 3 3 4 4 4 4 3 3 3 3 3 4 4
5 7 7 2 2 3 4 1 0 1 1 1 2 3 3 3 3 3 3 3 2 2 2 3 2 2 2 4 4 3 3 3 3 4 3 3 3 3 3 3 3 4 3 4
6 6 2 1 2 2 1 1 2 2 3 3 3 4 5 4 4 4 3 3 2 2 3 3 3 2 4 5 4 3 3 3 4 4 3 3 4 4 3 3 3 3 3 4
2 4 3 2 1 1 1 2 3 3 4 3 4 5 5 5 4 4 4 4 3 2 3 4 4 3 4 4 3 2 3 4 3 4 4 4 3 4 4 4 4 4 4 5
4 4 2 3 3 3 3 3 4 4 4 4 4 5 5 5 5 4 4 3 3 3 4 5 4 4 4 3 2 3 3 3 3 4 4 4 4 4 5 5 6 6 5 5
5 5 4 5 4 3 3 4 4 3 3 3 3 4 4 4 3 3 3 2 3 3 4 4 4 5 5 4 3 3 4 4 3 3 3 3 4 4 6 7 9 10 9 8
6 5 5 5 5 4 4 4 4 3 3 4 4 3 3 3 3 3 3 3 3 4 4 4 4 5 5 4 3 4 4 4 3 3 3 4 4 4 5 6 7 8 10 10
4 3 3 4 5 4 4 4 3 3 3 4 4 3 3 3 3 3 4 4 4 4 4 4 5 6 6 5 4 5 5 5 4 4 4 4 4 5 5 5 6 5 7 10
4 4 5 4 4 4 3 2 2 3 4 4 3 3 3 4 4 5 5 4 3 4 4 5 5 7 6 5 5 5 5 4 4 4 4 4 5 5 5 6 6 6 5 6
4 3 3 3 4 4 4 4 4 5 5 5 5 5 5 5 5 5 5 4 4 5 6 5 6 7 6 5 5 4 4 6 6 4 4 4 4 5 5 5 6 6 6 6
3 4 4 4 5 5 5 5 5 6 5 5 6 6 5 4 5 5 5 5 5 6 6 6 7 7 5 5 5 4 4 5 6 5 5 5 5 5 6 6 6 7 7 8
4 5 5 5 5 5 5 5 5 5 5 6 6 5 4 5 6 7 6 5 5 6 7 7 7 6 6 5 5 4 4 4 4 5 5 5 6 6 6 6 7 8 8 8
3 4 4 5 5 5 5 5 5 5 5 5 5 6 6 6 6 7 6 5 6 7 7 6 7 6 6 6 6 4 4 5 5 5 5 8 8 6 6 7 7 8 8 7
4 4 5 5 5 4 5 6 5 5 5 5 5 6 6 7 6 6 6 6 7 6 6 6 6 5 6 6 6 4 5 5 6 6 6 6 6 6 7 7 7 8 7 7
6 6 6 6 6 6 6 6 5 6 6 5 6 7 7 7 6 5 5 7 7 5 6 8 5 5 5 6 7 4 5 5 6 6 6 6 6 7 7 7 8 8 8 8
6 6 6 6 6 7 6 5 5 6 6 6 6 6 7 7 6 6 6 7 7 8 5 4 4 6 7 8 4 5 5 6 6 5 6 6 6 7 7 8 8 8 8 8
6 6 6 7 7 7 7 6 6 6 6 7 7 7 7 7 5 5 7 5 5 8 6 5 7 10 11 6 4 5 5 6 6 6 6 6 7 7 8 8 8 8 8 7
6 6 6 6 5 6 7 7 6 5 6 6 6 6 6 5 5 5 6 8 9 9 6 8 11 11 10 4 4 5 5 5 6 6 6 6 7 7 7 8 8 7 8 8
6 6 6 6 5 5 6 6 6 6 6 5 6 5 5 4 5 6 5 6 8 9 6 8 10 10 6 4 4 5 5 6 6 6 6 6 7 7 7 7 7 8 7 7
6 5 5 5 5 5 5 4 5 5 5 5 6 5 4 4 5 5 5 5 6 8 6 5 5 6 4 4 5 5 5 6 7 7 6 6 7 7 7 7 8 8 7 7
5 5 5 5 5 4 4 4 5 5 5 6 7 6 5 5 5 5 5 5 5 5 5 5 5 4 4 5 5 5 5 5 6 6 6 6 6 7 7 8 7 7 7 6
Wind_Direction
243 249 235 243 243 221 212 212 217 238 240 254 253 245 240 229 225 223 242 243 236 241 252 258 259 268 256 242 224 200 182 192 214 223 213 191 183 187 190 189 197 202 205 218
258 246 246 257 249 235 233 231 232 244 257 254 245 218 229 235 222 233 244 248 244 247 244 243 241 242 249 246 235 205 194 204 206 199 191 202 214 197 191 206 213 199 203 219
252 271 306 260 234 220 218 217 209 230 240 231 215 207 220 229 226 233 250 257 249 247 242 239 239 234 235 241 227 204 209 214 205 197 199 219 222 205 209 220 223 223 223 222
226 186 241 247 224 200 206 234 220 223 231 216 213 222 247 237 213 241 259 264 261 250 253 259 263 263 252 251 212 206 216 230 228 220 217 222 218 227 234 228 224 231 233 231
188 224 264 282 256 185 198 254 241 221 236 225 171 63 325 295 243 237 249 262 263 251 243 246 262 269 253 261 240 224 230 235 233 224 221 222 231 244 247 233 236 237 233 231
191 212 235 250 269 249 127 245 267 210 232 224 156 241 273 285 282 287 294 295 291 281 297 275 269 249 217 240 241 244 241 238 232 222 220 223 231 242 249 239 238 241 239 232
213 229 251 261 285 98 176 237 258 211 221 184 219 234 248 271 297 294 299 301 299 295 291 273 266 223 229 243 249 257 256 247 241 232 228 227 230 237 244 247 245 244 248 251
200 222 244 249 110 175 211 219 320 324 267 243 250 260 266 271 273 280 291 303 306 308 298 291 274 233 244 256 262 266 263 251 250 247 244 240 232 245 247 244 249 252 253 264
203 222 256 208 178 204 187 248 284 278 270 254 266 269 269 269 266 268 267 277 282 283 297 298 280 243 246 261 264 261 263 255 253 256 252 242 233 239 249 246 245 252 247 257
240 261 284 286 279 278 237 263 275 271 272 272 272 276 276 273 269 266 266 269 273 277 286 291 288 272 254 261 257 247 259 265 262 257 255 252 244 234 232 236 242 247 247 252
248 258 288 278 260 258 272 281 284 288 279 267 269 276 273 272 266 259 259 261 253 254 262 273 284 288 281 267 253 252 259 260 262 256 251 254 250 240 236 235 234 240 243 241
237 234 227 250 255 249 247 256 263 275 290 289 269 268 275 273 266 259 261 266 268 271 271 280 286 287 287 276 250 247 259 260 258 258 258 255 259 273 258 251 262 262 260 257
227 239 231 237 246 243 239 252 260 261 262 276 281 269 269 275 271 264 264 262 266 270 275 282 287 288 290 285 266 252 253 259 259 257 256 257 257 263 281 285 272 269 269 269
241 233 252 246 248 250 246 250 259 273 279 273 271 275 275 277 277 269 265 265 266 269 276 280 283 286 289 288 274 264 261 259 257 255 255 255 255 256 258 268 281 284 279 276
262 236 235 250 255 256 253 252 266 279 282 285 278 274 271 266 265 267 269 269 272 275 278 280 280 284 287 281 271 267 264 260 255 254 253 254 255 255 256 258 263 272 278 280
273 270 251 250 256 261 262 255 255 266 273 276 278 274 268 263 265 268 269 260 255 265 269 268 272 277 282 276 272 271 266 262 263 261 258 258 256 256 260 261 264 266 267 269
256 265 257 259 263 266 260 254 251 256 262 266 268 271 274 278 281 277 273 264 254 260 263 263 269 276 276 270 267 269 268 266 265 264 256 254 254 253 254 257 261 264 264 265
240 246 247 243 252 263 272 270 261 259 259 261 269 272 270 268 271 272 272 276 276 276 272 265 266 274 275 272 268 265 264 264 261 259 260 257 258 253 253 256 259 265 270 271
288 273 272 269 263 257 262 266 267 267 269 269 269 269 270 269 269 272 273 273 272 278 280 270 275 276 273 271 270 263 262 264 267 264 262 266 270 260 257 258 260 262 267 269
299 289 282 281 276 266 267 273 276 279 278 272 272 276 280 279 276 275 274 271 265 263 269 276 278 272 272 271 271 262 259 261 264 266 266 263 263 264 263 264 264 265 265 264
296 292 289 287 287 283 275 272 273 275 279 274 268 271 275 279 277 271 271 280 282 272 270 277 275 269 270 270 273 262 259 260 262 263 266 268 269 269 268 267 267 268 267 266
290 289 289 289 289 290 287 279 272 273 277 279 275 274 278 282 283 277 264 262 275 284 282 270 267 271 276 281 269 262 261 260 262 264 265 267 268 270 271 270 269 269 267 265
286 286 288 287 285 286 290 286 277 275 275 275 275 274 272 272 272 272 281 277 271 281 282 270 273 279 284 282 266 262 263 264 266 267 267 268 269 270 272 273 272 271 269 267
291 292 292 293 295 296 296 294 289 284 277 276 274 270 270 277 278 265 264 281 288 288 281 278 283 287 291 281 267 265 266 268 269 269 270 270 270 271 273 275 277 276 274 271
292 292 294 299 298 294 290 293 296 292 289 289 285 278 270 263 268 280 279 277 286 292 288 287 290 291 289 276 270 269 269 269 271 272 269 271 273 275 276 276 275 276 275 272
298 298 294 288 286 289 294 299 299 299 300 299 298 292 286 282 276 278 280 279 280 289 289 284 283 285 279 272 270 271 270 276 281 279 274 275 275 275 277 278 277 277 275 272
305 302 302 302 300 297 296 294 292 294 295 294 296 298 296 294 290 286 282 282 283 284 284 284 280 275 274 274 274 274 274 273 274 275 276 275 274 275 277 278 280 280 277 273
Height
1472 1471 1472 1472 1471 1473 1475 1476 1478 1470 1468 1462 1461 1460 1460 1460 1460 1460 1460 1461 1461 1461 1461 1462 1462 1462 1462 1462 1463 1463 1463 1463 1463 1463 1463 1463 1463 1464 1464 1464 1465 1465 1466 1466
1472 1469 1469 1468 1465 1466 1466 1466 1466 1464 1462 1458 1458 1458 1458 1458 1458 1458 1458 1458 1459 1459 1459 1459 1459 1459 1459 1459 1460 1460 1460 1460 1460 1460 1460 1460 1460 1461 1461 1461 1461 1461 1462 1462
1474 1469 1468 1467 1458 1459 1459 1457 1458 1459 1456 1455 1456 1456 1456 1456 1455 1455 1455 1456 1456 1456 1456 1456 1456 1456 1456 1456 1456 1456 1456 1456 1456 1457 1456 1457 1457 1457 1457 1457 1458 1458 1458 1458
1476 1474 1475 1455 1451 1450 1452 1453 1453 1452 1452 1452 1453 1453 1454 1454 1453 1453 1453 1453 1453 1454 1454 1453 1453 1453 1453 1453 1452 1453 1453 1453 1453 1453 1453 1453 1453 1453 1453 1454 1454 1453 1454 1454
1475 1473 1462 1454 1449 1450 1451 1452 1451 1451 1450 1450 1450 1451 1452 1452 1451 1450 1450 1450 1450 1450 1450 1450 1450 1450 1449 1449 1449 1449 1449 1449 1449 1449 1449 1449 1449 1449 1449 1449 1449 1449 1449 1449
1469 1467 1461 1451 1447 1445 1448 1453 1449 1448 1447 1448 1448 1452 1451 1449 1449 1448 1448 1448 1447 1447 1447 1447 1447 1447 1446 1445 1445 1445 1445 1445 1445 1445 1445 1445 1444 1444 1444 1444 1444 1444 1444 1444
1462 1460 1454 1449 1445 1445 1453 1450 1448 1446 1446 1447 1447 1448 1448 1447 1446 1445 1445 1445 1444 1444 1444 1443 1443 1443 1442 1442 1441 1441 1441 1440 1440 1441 1441 1440 1440 1440 1440 1439 1439 1439 1439 1439
1458 1458 1454 1445 1445 1448 1447 1446 1445 1445 1445 1445 1445 1444 1444 1444 1443 1442 1442 1441 1441 1440 1440 1440 1440 1439 1438 1438 1437 1437 1437 1436 1436 1436 1436 1436 1435 1435 1435 1435 1434 1434 1434 1434
1449 1448 1444 1443 1443 1443 1443 1444 1443 1443 1443 1443 1442 1441 1440 1440 1439 1439 1438 1438 1438 1437 1436 1436 1436 1436 1435 1434 1433 1433 1433 1432 1432 1431 1431 1431 1431 1431 1431 1430 1430 1429 1429 1428
1446 1444 1442 1442 1441 1442 1442 1442 1441 1441 1440 1440 1439 1438 1437 1436 1436 1435 1435 1435 1434 1434 1433 1432 1432 1431 1431 1430 1430 1429 1428 1428 1428 1427 1427 1427 1427 1426 1426 1425 1425 1424 1424 1423
1444 1442 1441 1440 1440 1440 1440 1440 1439 1438 1437 1437 1436 1434 1433 1432 1432 1431 1431 1431 1431 1430 1429 1429 1428 1427 1427 1426 1426 1425 1425 1424 1424 1423 1423 1422 1422 1422 1421 1421 1421 1420 1419 1418
1441 1439 1439 1438 1438 1438 1437 1436 1436 1435 1434 1433 1433 1431 1430 1429 1428 1428 1427 1427 1426 1426 1425 1424 1424 1423 1423 1423 1422 1421 1421 1420 1419 1419 1418 1418 1417 1416 1416 1416 1415 1415 1414 1413
1435 1435 1435 1434 1434 1434 1434 1433 1432 1432 1431 1430 1429 1428 1427 1426 1425 1425 1424 1424 1423 1422 1421 1421 1420 1420 1419 1419 1418 1417 1416 1416 1415 1415 1414 1413 1412 1411 1410 1410 1409 1409 1408 1407
1432 1432 1431 1431 1431 1431 1430 1430 1429 1429 1428 1427 1426 1425 1424 1423 1422 1421 1421 1420 1420 1419 1418 1417 1417 1416 1416 1415 1414 1413 1412 1411 1411 1410 1409 1408 1407 1407 1406 1404 1403 1402 1402 1401
1428 1428 1428 1427 1427 1427 1427 1426 1426 1425 1424 1423 1422 1421 1420 1419 1418 1418 1417 1417 1416 1415 1414 1413 1412 1412 1411 1410 1409 1408 1407 1406 1405 1404 1404 1403 1402 1401 1400 1399 1397 1396 1395 1394
1425 1425 1424 1424 1424 1423 1423 1422 1422 1421 1420 1419 1418 1417 1417 1416 1415 1414 1413 1413 1412 1411 1410 1409 1408 1407 1406 1405 1404 1403 1401 1400 1400 1399 1398 1397 1396 1395 1394 1393 1391 1390 1388 1388
1422 1421 1421 1420 1420 1420 1419 1419 1418 1417 1416 1415 1414 1413 1412 1411 1410 1409 1409 1408 1407 1406 1405 1404 1403 1402 1401 1400 1399 1397 1396 1394 1394 1393 1392 1391 1390 1389 1388 1386 1385 1383 1382 1382
1419 1419 1418 1418 1417 1416 1416 1415 1414 1413 1412 1411 1410 1409 1408 1406 1405 1404 1403 1403 1402 1400 1400 1399 1398 1397 1395 1394 1393 1391 1390 1389 1388 1387 1386 1385 1383 1382 1381 1380 1378 1377 1375 1375
1417 1416 1416 1415 1414 1413 1412 1411 1410 1409 1408 1407 1406 1404 1403 1402 1400 1399 1398 1397 1396 1394 1393 1393 1392 1391 1389 1388 1387 1386 1384 1383 1382 1381 1380 1378 1377 1376 1375 1373 1372 1370 1369 1368
1414 1413 1412 1411 1410 1409 1408 1407 1406 1405 1404 1403 1401 1399 1398 1396 1395 1394 1393 1391 1390 1389 1388 1387 1386 1384 1383 1382 1381 1379 1378 1377 1376 1375 1373 1372 1371 1369 1368 1366 1365 1363 1362 1361
1411 1410 1408 1407 1406 1405 1404 1402 1401 1400 1398 1397 1396 1394 1392 1391 1390 1388 1387 1385 1384 1383 1382 1381 1380 1378 1377 1376 1375 1373 1372 1371 1370 1369 1367 1366 1364 1363 1361 1360 1358 1357 1355 1354
1408 1406 1404 1403 1401 1399 1398 1397 1396 1394 1393 1391 1390 1389 1387 1385 1383 1382 1381 1380 1378 1377 1376 1374 1373 1372 1371 1370 1369 1368 1366 1365 1364 1362 1361 1359 1358 1356 1354 1353 1351 1350 1348 1347
1404 1402 1400 1398 1396 1394 1393 1392 1390 1389 1387 1386 1384 1383 1381 1379 1378 1376 1374 1373 1373 1371 1370 1369 1367 1366 1365 1364 1363 1362 1361 1359 1358 1356 1355 1353 1352 1350 1348 1346 1345 1343 1342 1340
1399 1397 1396 1394 1392 1390 1387 1386 1385 1383 1382 1380 1379 1377 1376 1374 1372 1371 1370 1368 1367 1366 1364 1363 1362 1361 1360 1359 1357 1356 1355 1353 1352 1350 1349 1347 1346 1344 1342 1340 1338 1337 1335 1334
1395 1393 1391 1389 1387 1385 1383 1381 1379 1378 1376 1375 1373 1372 1370 1369 1367 1365 1364 1363 1361 1360 1359 1357 1356 1355 1354 1353 1352 1350 1349 1348 1346 1345 1343 1341 1340 1338 1336 1334 1333 1331 1329 1327
1391 1389 1387 1385 1383 1381 1379 1377 1375 1373 1372 1370 1368 1366 1365 1364 1362 1360 1359 1357 1356 1355 1353 1352 1351 1350 1348 1347 1346 1345 1343 1342 1340 1339 1337 1336 1334 1332 1330 1328 1327 1325 1323 1322
1387 1385 1383 1381 1379 1377 1375 1373 1371 1369 1367 1365 1363 1361 1360 1359 1357 1355 1354 1352 1351 1349 1348 1347 1345 1344 1343 1342 1340 1339 1338 1336 1335 1333 1332 1330 1328 1326 1325 1323 1321 1319 1318 1316